"Pseudo-MPEC" for P20OVuX

Created 2019 Jun 15 19:09:49 UT using Find_Orb

Click here for an explanation of pseudo-MPECs

 
 Astrometry: 
     P20OVuX  C2019 05 314^Fh*'u+8bPG-%$'*MuHi;#'\O#XaItOa@FG9Q9U':baDEF?Gi4JF52
     P20OVuX  C2019 05 31qpSNNowD_Bb_DU6]eqRM2pKWpD$`XNW((+VQ]XuvU8[yGq62hh:!F52
     P20OVuX  C2019 05 319e2/07IB?K!f[RIn(EI@ZgQls5nNNYa7CRa@qAkMaY0ta/C'iyItF52
     P20OVuX  C2019 06 02l#n'qB/*]F(5aHa]m4DsGUAstrometryn/kjbk9\]pPdgMsrdsTTF52
     P20OVuX  C2019 06 02[;ro)hPK6_j(*RsChV:st[G-d@aU=3M2jUGok`_MjkFhZV\-*=-QF52
     P20OVuX  C2019 06 02%qLf6'*#/ptS%AHq[.DSEHgU*t`!'kS=GCE+F.!@a';/RQqPWKO%F52
     P20OVuX  C2019 06 03l+cgEdH6E!TlDSwkaReH3'1?2)Ji.yH^eA)OjttE(@j[q5v$x7[/F51
     P20OVuX  C2019 06 031G8[6F48!s#BV-fP[2XVmMkCQEAC[+.(wCsxW1y*iAaPbk1t$gPKF51
     P20OVuX  C2019 06 10oAofjw!u+*sN#q`hJjWE+redacted;--Qsclick'U:WZcR)dst;tF52
     P20OVuX  C2019 06 10IG$vO'GipqZ'=?iJp,%Vc`tpi^i=ycAB=*#esM6SU-sxXi:dIJ'/F52
     P20OVuX  C2019 06 10DQR\@J\^k6Zb@]':1G@Kt]X!g\]P'4(c/,yGwj':0A$O9Lo?FgdyF52
     P20OVuX  C2019 06 10X+\;[=)ZlJ49$t497mhQ?8p?YL^Y*ioy%2)ClumiI^c?sWfE._7$F52
     P20OVuX  C2019 06 13$pPO5`D4e0q.#GU]6YBSxoVU5!ct8ARherebLI8a/6OtGG\$H7;^F52
     P20OVuX  C2019 06 13p77I,G$uBIn=WiKI*4_Z.`[jd)[ZA,q2U$43y6U#+s%*eG$[epJ)F52
     P20OVuX  C2019 06 13S+cNk[`9t4leiopNfY2Q*/;for0N14X@ule0Rf#'JlCs`H(?43y?F52
     P20OVuX KC2019 06 14vn)K%]w82i#CACCJnADd'FFZ3Sy0G]5!r#9*lp'g:(j7R8XPW9v#H21
     P20OVuX KC2019 06 14917F0!mG6sH.P;lB2explanationtdVT=bFv9#ii[)L)eMw2cJ[KH21
     P20OVuX KC2019 06 14!PqwbkahGo`06#s%lTbGl2SCDpmYun0mlL8-o:#U$?E'lJMGgt'YH21
     P20OVuX  C2019 06 14.37520 20 13 23.63 +00 01 20.4    ~6EAb       VNEOCPI52
     P20OVuX  C2019 06 14.38893 20 13 23.92 +00 01 31.0    ~6EAb 20.4 GVNEOCPI52
     P20OVuX  C2019 06 14.41295 20 13 24.60 +00 01 48.6    ~6EAb       VNEOCPI52

Station data:
(F51) Pan-STARRS 1, Haleakala  (N20.707235 W156.255910)  US/Hawaii.
   Observers N. Primak, A. Schultz, S. Watters, J. Thiel, T. Goggia. Measurer
   PS1 Science Consortium. 1.8-m Ritchey-Chrétien + CCD.
(F52) Pan-STARRS 2, Haleakala  (N20.707384 W156.255910)  US/Hawaii. 1.8-m
   Ritchey-Chrétien + CCD.
(H21) Astronomical Research Observatory, Westfield  (N39.483057 W87.968270)
   US/Illinois. 0.76-m f/3.0 astrograph + CCD.
(I52) Steward Observatory, Mt. Lemmon Station  (N32.442547 W110.788920)
   US/Arizona.  Observers T. A. Pruyne, B. M. Africano, E. J. Christensen, G.
   A. Farneth, D. C. Fuls, A. R. Gibbs, A. D. Grauer, H. Groeller, J. A.
   Johnson, R. A. Kowalski, S. M. Larson, G. J. Leonard, R. L. Seaman, F. C.
   Shelly. 1.0-m reflector + CCD.

Orbital elements:  P20OVuX
   Perihelion 2019 Sep 17.370702 +/- 0.257 TT =  8:53:48 (JD 2458743.870702)
Epoch 2019 Jun 14.0 TT = JDT 2458648.5   Earth MOID: 0.4889   AutoNEOCP
M 336.30351084 +/- 0.17             (J2000 ecliptic)
n   0.24846717 +/- 0.00116          Peri.  143.42243 +/- 0.31
a   2.50585938 +/- 0.00777          Node   193.82988 +/- 0.11
e   0.4076059 +/- 0.00101           Incl.    9.37866 +/- 0.008
P   3.97                   H 18.9   G  0.15   U  8.2  
q 1.48445617 +/- 0.00221    Q 3.52726258 +/- 0.0135
From 21 observations 2019 May 31-June 14; mean residual 0".26
Residuals in arcseconds: 
190531 F52  .34+  .09+    190603 F51  .02+  .06+    190613 F52  .03-  .00     
190531 F52  .36-  .04+    190610 F52  .06-  .02-    190614 H21  .11-  .08-    
190531 F52  .09+  .01+    190610 F52  .09-  .07+    190614 H21  .10+  .21+    
190602 F52  .04-  .27-    190610 F52  .03-  .01-    190614 H21  .10-  .33+    
190602 F52  .05-  .12-    190610 F52  .18+  .04+    190614 I52  1.1+  .01-    
190602 F52  .07-  .13+    190613 F52  .11-  .08-    190614 I52  .45-  .12+    
190603 F51  .04+  .00     190613 F52  .16+  .06+    190614 I52  .58-  .59-    

Ephemerides (geocentric):
Date (UTC) HH   RA              Dec         delta   r     elong  mag " sig PA
---- -- -- --  -------------   -----------  ------ ------ -----  --- ---- ---
2019 06 15 19  20 14 07.732   +00 19 19.99  .81978 1.6950 134.6 20.8 .246 131
2019 06 15 20  20 14 08.989   +00 19 51.39  .81942 1.6949 134.6 20.8 .251 131
2019 06 15 21  20 14 10.244   +00 20 22.78  .81906 1.6947 134.6 20.8 .257 131
2019 06 15 22  20 14 11.496   +00 20 54.16  .81870 1.6945 134.7 20.8 .262 131
2019 06 15 23  20 14 12.745   +00 21 25.52  .81833 1.6944 134.7 20.8 .268 131
2019 06 16 00  20 14 13.991   +00 21 56.88  .81797 1.6942 134.7 20.8 .273 131
2019 06 16 01  20 14 15.235   +00 22 28.22  .81761 1.6940 134.8 20.8 .278 131
2019 06 16 02  20 14 16.476   +00 22 59.55  .81725 1.6939 134.8 20.8 .284 131
2019 06 16 03  20 14 17.714   +00 23 30.87  .81689 1.6937 134.8 20.8 .289 131
2019 06 16 04  20 14 18.950   +00 24 02.18  .81653 1.6935 134.8 20.8 .295 131
2019 06 16 05  20 14 20.183   +00 24 33.47  .81617 1.6934 134.9 20.8 .301 130
2019 06 16 06  20 14 21.413   +00 25 04.76  .81581 1.6932 134.9 20.8 .306 130
2019 06 16 07  20 14 22.641   +00 25 36.03  .81545 1.6930 134.9 20.8 .312 130
2019 06 16 08  20 14 23.865   +00 26 07.29  .81510 1.6929 134.9 20.8 .317 130
2019 06 16 09  20 14 25.087   +00 26 38.54  .81474 1.6927 135.0 20.8 .323 130
2019 06 16 10  20 14 26.307   +00 27 09.78  .81438 1.6926 135.0 20.8 .329 130
2019 06 16 11  20 14 27.523   +00 27 41.00  .81402 1.6924 135.0 20.8 .335 130
2019 06 16 12  20 14 28.737   +00 28 12.21  .81366 1.6922 135.0 20.8 .341 130
2019 06 16 13  20 14 29.948   +00 28 43.42  .81330 1.6921 135.1 20.8 .346 130
2019 06 16 14  20 14 31.156   +00 29 14.60  .81295 1.6919 135.1 20.8 .352 130
2019 06 16 15  20 14 32.362   +00 29 45.78  .81259 1.6917 135.1 20.8 .358 130
2019 06 16 16  20 14 33.565   +00 30 16.94  .81223 1.6916 135.1 20.8 .364 130
2019 06 16 17  20 14 34.765   +00 30 48.10  .81187 1.6914 135.2 20.8 .370 130
2019 06 16 18  20 14 35.963   +00 31 19.24  .81152 1.6912 135.2 20.8 .376 130
2019 06 16 19  20 14 37.157   +00 31 50.36  .81116 1.6911 135.2 20.8 .382 130
2019 06 16 20  20 14 38.349   +00 32 21.48  .81080 1.6909 135.2 20.8 .388 130
2019 06 16 21  20 14 39.539   +00 32 52.58  .81045 1.6907 135.3 20.8 .394 130
2019 06 16 22  20 14 40.725   +00 33 23.67  .81009 1.6906 135.3 20.8 .401 129
2019 06 16 23  20 14 41.909   +00 33 54.75  .80974 1.6904 135.3 20.8 .407 129
2019 06 17 00  20 14 43.090   +00 34 25.81  .80938 1.6902 135.3 20.8 .413 129
2019 06 17 01  20 14 44.268   +00 34 56.87  .80902 1.6901 135.4 20.8 .419 129
2019 06 17 02  20 14 45.444   +00 35 27.91  .80867 1.6899 135.4 20.8 .426 129
2019 06 17 03  20 14 46.616   +00 35 58.94  .80831 1.6897 135.4 20.8 .432 129
2019 06 17 04  20 14 47.787   +00 36 29.95  .80796 1.6896 135.4 20.8 .438 129
2019 06 17 05  20 14 48.954   +00 37 00.95  .80761 1.6894 135.5 20.8 .445 129
2019 06 17 06  20 14 50.118   +00 37 31.94  .80725 1.6893 135.5 20.8 .451 129
2019 06 17 07  20 14 51.280   +00 38 02.92  .80690 1.6891 135.5 20.8 .458 129
2019 06 17 08  20 14 52.439   +00 38 33.88  .80654 1.6889 135.6 20.8 .464 129
2019 06 17 09  20 14 53.596   +00 39 04.83  .80619 1.6888 135.6 20.8 .471 129
2019 06 17 10  20 14 54.749   +00 39 35.77  .80584 1.6886 135.6 20.8 .477 129
2019 06 17 11  20 14 55.900   +00 40 06.70  .80548 1.6884 135.6 20.8 .484 129
2019 06 17 12  20 14 57.048   +00 40 37.61  .80513 1.6883 135.7 20.8 .491 129
2019 06 17 13  20 14 58.193   +00 41 08.51  .80478 1.6881 135.7 20.8 .497 129
2019 06 17 14  20 14 59.336   +00 41 39.39  .80442 1.6879 135.7 20.8 .504 129
2019 06 17 15  20 15 00.476   +00 42 10.26  .80407 1.6878 135.7 20.8 .511 129
2019 06 17 16  20 15 01.613   +00 42 41.12  .80372 1.6876 135.8 20.8 .518 129
2019 06 17 17  20 15 02.747   +00 43 11.97  .80337 1.6874 135.8 20.8 .524 129
2019 06 17 18  20 15 03.879   +00 43 42.80  .80302 1.6873 135.8 20.8 .531 128